Other Public Products
Issued by NWS Charleston, SC

Current Version | Previous Version | Graphics & Text | Print | Product List | Glossary On
Versions: 1 2 3 4 5 6 7 8 9 10 11 12 13 14 15 16 17 18 19 20 21 22 23 24 25 26 27 28 29 30 31 32 33 34 35 36 37 38 39 40 41 42 43 44 45 46 47 48 49 50
000 FPUS82 KCHS 192127 OPUCHS TEST...KCHS/KSAV Gateway Observations...TEST National Weather Service Charleston SC 500 PM EDT THU OCT 19 2017 NOTE: "fair" indicates few or no clouds below 12,000 feet with no significant weather and/or obstructions to visibility. SCZ050-WAZ558-NCZ071-TXZ119-213-PAZ071-DCZ001-FLZ074-172-MI076- NYZ176-178-MAZ016-IL014-TNZ027-NJZ106-GAZ044-MD014-192200- ...Gateway Observations for Charleston International... CITY SKY/WX TMP DP RH WIND PRES REMARKS Chas Airport MOSUNNY 78 58 49 NE7 30.17F Seattle CLOUDY 53 51 93 SE9 29.53F Charlotte MOSUNNY 75 40 28 CALM 30.23F Dallas DFW PTSUNNY 82 55 39 SE9 30.06F Dallas Love MOSUNNY 82 54 37 SE10 30.07F Philladelphia MOSUNNY 71 44 37 SW12 30.13F Wash National MOSUNNY 71 51 49 S9 30.16F Baltimore MOSUNNY 72 46 39 SW5 30.14F Miami PTSUNNY 87 73 62 NE9 29.97S HX 94 Detroit PTSUNNY 70 37 29 W15 30.11R Newark MOSUNNY 71 40 32 SW13 30.09F Laguardia MOSUNNY 72 38 29 S14 30.08F J F K MOSUNNY 66 56 70 S16 30.10F Boston Logan MOCLDY 70 45 40 S21 30.01F Ft. Lauderdale PTSUNNY 82 77 84 NE8 29.97S HX 90 Chicago O`Hare PTSUNNY 67 24 19 E10 30.16S Chicago Midway PTSUNNY 67 23 19 E6 30.17S Houston Bush PTSUNNY 84 62 47 SE10 30.07F Houston Hobby PTSUNNY 81 64 56 E10 30.08S Nashville MOSUNNY 76 41 28 CALM 30.24F Atlanta MOSUNNY 76 39 26 N6 30.23F $$ GAZ044-118-TXZ119-213-NCZ071-DCZ001-MDZ014-506-PAZ021-071-NJZ106- NYZ176-178-MAZ106-OHZ011-021-055-MIZ076-KYZ091-ILZ014-INZ047- MNZ060-ONZ431-192200- ...Gateway Observations for Savannah International... CITY SKY/WX TMP DP RH WIND PRES REMARKS Savannah Arpt MOSUNNY 81 58 45 NE9 30.17F Atlanta MOSUNNY 76 39 26 N6 30.23F Charlotte MOSUNNY 75 40 28 CALM 30.23F Dallas DFW PTSUNNY 82 55 39 SE9 30.06F Houston Bush PTSUNNY 84 62 47 SE10 30.07F Wash National MOSUNNY 71 51 49 S9 30.16F Wash Dulles MOSUNNY 73 45 36 S6 30.15F Baltimore MOSUNNY 72 46 39 SW5 30.14F Philadelphia MOSUNNY 71 44 37 SW12 30.13F Newark MOSUNNY 71 40 32 SW13 30.09F Laguardia MOSUNNY 72 38 29 S14 30.08F J F K MOSUNNY 66 56 70 S16 30.10F Boston MOCLDY 70 45 40 S21 30.01F Pittsburg CLOUDY 70 45 40 SW10G20 30.15F Akron MOSUNNY 71 48 43 SW14 30.13F Cleveland MOSUNNY 73 50 44 W14 30.12F Cincinnati SUNNY 73 52 47 SW6 30.20S Columbus SUNNY 72 49 45 SW13 30.16F Detroit PTSUNNY 70 37 29 W15 30.11R Chicago O`Hare PTSUNNY 67 24 19 E10 30.16S Minneapolis MOSUNNY 73 34 23 S20G26 29.97F Indianapolis MOSUNNY 74 51 44 SW10 30.18S Toronto Canada MOSUNNY 66 43 42 W17G26 29.99R $$

USA.gov is the U.S. government's official web portal to all federal, state and local government web resources and services.